Location: Godiavel Galaoual
(15.2485°N, 12.6604°W)
Time: 00:44:44
(UTC+00:00)

Explorer 7 - Pass Details

Date: 17 June 2021
Orbit: 484 x 676 km, 50.3° (Epoch: 29 July)

Event Time Altitude Azimuth Distance (km) Brightness Sun altitude
Rises 06:26:39 0° 328° (NNW) 2,740 10.3 0.5°
Reaches altitude 10° 06:29:01 10° 334° (NNW) 1,810 9.5 1.0°
Maximum altitude 06:32:58 47° 49° (NE) 698 8.1 1.9°
Drops below altitude 10° 06:36:43 10° 124° (SE) 1,712 9.9 2.7°
Sets 06:38:54 0° 130° (SE) 2,573 10.6 3.2°
